EW1525 Weather Reports


time (UTC)temp
C
wind
direction
speed
KPH
gust
KPH
rain 1hr
cm
rain 24hr
cm
rain mn
cm
humidity
%
barometer
mb
20260503055003 7 304 3.2 9.7 0.00 0.00 0.00 2 1008.7
20260503054503 7 310 1.6 11.3 0.00 0.00 0.00 2 1008.7
20260503053504 7 313 1.6 9.7 0.00 0.00 0.00 2 1008.7
20260503053003 7 305 3.2 8.0 0.00 0.00 0.00 2 1008.9
20260503052503 7 305 1.6 8.0 0.00 0.00 0.00 2 1008.9
20260503051503 7 325 1.6 3.2 0.00 0.00 0.00 2 1008.7
20260503050503 7 0 0.0 3.2 0.00 0.00 0.00 2 1008.8
20260503050004 7 0 0.0 6.4 0.00 0.00 0.00 2 1008.9
20260503045503 7 302 1.6 8.0 0.00 0.00 0.00 2 1009.0
20260503045003 7 304 1.6 8.0 0.00 0.00 0.00 2 1009.2
20260503044504 7 307 1.6 4.8 0.00 0.00 0.00 2 1009.3
20260503043503 7 0 0.0 3.2 0.00 0.00 0.00 2 1009.3
20260503043004 7 0 0.0 3.2 0.00 0.00 0.00 2 1009.3
20260503042503 7 0 0.0 3.2 0.00 0.00 0.00 2 1009.3
20260503041504 7 0 0.0 0.0 0.00 0.00 0.00 2 1009.5
20260503041004 7 0 0.0 0.0 0.00 0.00 0.00 2 1009.6
20260503040004 7 0 0.0 0.0 0.00 0.00 0.00 2 1009.9
20260503035503 7 0 0.0 0.0 0.00 0.00 0.00 2 1009.8
20260503034003 7 0 0.0 0.0 0.00 0.00 0.00 2 1009.7
20260503033503 7 0 0.0 0.0 0.00 0.00 0.00 2 1009.9
20260503033004 7 0 0.0 0.0 0.00 0.00 0.00 2 1009.6
20260503032504 7 0 0.0 0.0 0.00 0.00 0.00 2 1009.6
20260503032004 7 0 0.0 0.0 0.00 0.00 0.00 2 1009.8
20260503031503 7 0 0.0 0.0 0.00 0.00 0.00 2 1009.7
20260503031003 7 0 0.0 0.0 0.00 0.00 0.00 2 1009.7
20260503030003 7 0 0.0 0.0 0.00 0.00 0.00 2 1009.7
20260503025503 7 0 0.0 0.0 0.00 0.00 0.00 2 1009.7
20260503025004 7 0 0.0 0.0 0.00 0.00 0.00 2 1009.7
20260503024503 7 0 0.0 0.0 0.00 0.00 0.00 2 1009.8
20260503024003 7 0 0.0 0.0 0.00 0.00 0.00 2 1009.8
20260503023503 7 0 0.0 0.0 0.00 0.00 0.00 2 1010.0
20260503023003 7 0 0.0 0.0 0.00 0.00 0.00 2 1009.9
20260503022503 7 0 0.0 0.0 0.00 0.00 0.00 2 1009.9
20260503022003 7 0 0.0 0.0 0.00 0.00 0.00 2 1010.0
20260503021503 7 0 0.0 0.0 0.00 0.00 0.00 2 1009.9
20260503021003 7 0 0.0 0.0 0.00 0.00 0.00 2 1009.9
20260503020503 7 0 0.0 0.0 0.00 0.00 0.00 2 1010.0
20260503020003 7 0 0.0 0.0 0.00 0.00 0.00 2 1010.1
20260503015504 7 0 0.0 0.0 0.00 0.00 0.00 2 1010.1
20260503014503 7 0 0.0 0.0 0.00 0.00 0.00 2 1010.2
20260503014003 7 0 0.0 0.0 0.00 0.00 0.00 2 1010.2
20260503013503 7 0 0.0 0.0 0.00 0.00 0.00 2 1010.3
20260503013003 7 0 0.0 0.0 0.00 0.00 0.00 2 1010.3
20260503012503 7 0 0.0 0.0 0.00 0.00 0.00 2 1010.3
20260503012003 7 0 0.0 0.0 0.00 0.00 0.00 2 1010.2
20260503011503 7 0 0.0 0.0 0.00 0.00 0.00 2 1010.3
20260503010504 7 0 0.0 0.0 0.00 0.00 0.00 2 1010.1
20260503010003 7 0 0.0 0.0 0.00 0.00 0.00 2 1010.1
20260503005503 7 0 0.0 0.0 0.00 0.00 0.00 2 1010.1
20260503005003 7 0 0.0 0.0 0.00 0.00 0.00 2 1010.1
20260503004503 7 0 0.0 0.0 0.00 0.00 0.00 2 1010.1
20260503004004 7 0 0.0 0.0 0.00 0.00 0.00 2 1010.2
20260503003503 7 0 0.0 0.0 0.00 0.00 0.00 2 1010.2
20260503003003 7 0 0.0 0.0 0.00 0.00 0.00 2 1010.2
20260503002503 7 0 0.0 0.0 0.00 0.00 0.00 2 1010.2
20260503002004 7 0 0.0 0.0 0.00 0.00 0.00 2 1010.1
20260503001503 7 0 0.0 0.0 0.00 0.00 0.00 2 1010.0
20260503001003 7 0 0.0 0.0 0.00 0.00 0.00 2 1010.1
20260503000503 7 0 0.0 0.0 0.00 0.00 0.00 2 1010.1
20260503000003 7 0 0.0 0.0 0.00 0.00 0.00 2 1010.1
20260502235503 7 0 0.0 0.0 0.00 0.00 0.00 2 1010.1
20260502235003 7 0 0.0 0.0 0.00 0.00 0.00 2 1010.1
20260502234503 7 0 0.0 0.0 0.00 0.00 0.00 2 1010.1
20260502234003 7 0 0.0 0.0 0.00 0.00 0.00 2 1010.1
20260502233503 7 0 0.0 0.0 0.00 0.00 0.00 2 1010.1
20260502232503 7 0 0.0 1.6 0.00 0.00 0.00 2 1010.1
20260502231503 7 0 0.0 1.6 0.00 0.00 0.00 2 1010.1
20260502230003 7 0 0.0 3.2 0.00 0.00 0.00 2 1010.2
20260502225503 7 0 0.0 3.2 0.00 0.00 0.00 2 1010.2
20260502224503 7 0 0.0 4.8 0.00 0.00 0.00 2 1010.3
20260502224004 7 0 0.0 3.2 0.00 0.00 0.00 2 1010.2
20260502223503 7 0 0.0 3.2 0.00 0.00 0.00 2 1010.1
20260502223003 7 0 0.0 3.2 0.00 0.00 0.00 2 1010.1
20260502222503 7 0 0.0 4.8 0.00 0.00 0.00 2 1010.0
20260502222003 7 0 0.0 4.8 0.00 0.00 0.00 2 1010.1
20260502221503 7 0 0.0 0.0 0.00 0.00 0.00 2 1010.0
20260502221003 7 0 0.0 0.0 0.00 0.00 0.00 2 1010.0
20260502220503 7 0 0.0 0.0 0.00 0.00 0.00 2 1009.9
20260502215503 7 0 0.0 0.0 0.00 0.00 0.00 2 1009.9
20260502215003 7 0 0.0 0.0 0.00 0.00 0.00 2 1009.9
20260502214004 7 0 0.0 4.8 0.00 0.00 0.00 2 1009.9
20260502213503 7 0 0.0 4.8 0.00 0.00 0.00 2 1009.8
20260502213003 7 0 0.0 3.2 0.00 0.00 0.00 2 1009.8
20260502212003 7 0 0.0 8.0 0.00 0.00 0.00 2 1009.7
20260502211003 7 0 0.0 3.2 0.00 0.00 0.00 2 1009.9
20260502210504 7 167 1.6 6.4 0.00 0.00 0.00 2 1009.9
20260502210003 7 177 1.6 6.4 0.00 0.00 0.00 2 1010.1
20260502205004 7 176 1.6 6.4 0.00 0.00 0.00 2 1010.1
20260502204504 7 182 1.6 8.0 0.00 0.00 0.00 2 1010.1
20260502204003 7 199 1.6 8.0 0.00 0.00 0.00 2 1010.1
20260502203503 7 200 1.6 4.8 0.00 0.00 0.00 2 1010.0
20260502203003 7 0 0.0 4.8 0.00 0.00 0.00 2 1010.1
20260502202504 7 176 1.6 8.0 0.00 0.00 0.00 2 1010.2
20260502202003 7 178 1.6 11.3 0.00 0.00 0.00 2 1010.1
20260502201503 7 187 1.6 11.3 0.00 0.00 0.00 2 1010.2
20260502201003 7 198 1.6 9.7 0.00 0.00 0.00 2 1010.4
20260502200504 7 197 1.6 6.4 0.00 0.00 0.00 2 1010.4
20260502195503 7 0 0.0 4.8 0.00 0.00 0.00 2 1010.5
20260502195003 7 175 1.6 6.4 0.00 0.00 0.00 2 1010.5
20260502194504 7 183 3.2 9.7 0.00 0.00 0.00 2 1010.5
20260502194004 7 183 3.2 11.3 0.00 0.00 0.00 2 1010.5
20260502193503 7 178 1.6 11.3 0.00 0.00 0.00 2 1010.6
20260502193003 7 0 0.0 4.8 0.00 0.00 0.00 2 1010.6
20260502192503 7 215 1.6 4.8 0.00 0.00 0.00 2 1010.8
20260502192004 7 216 1.6 4.8 0.00 0.00 0.00 2 1010.9
20260502191503 7 181 1.6 6.4 0.00 0.00 0.00 2 1010.9
20260502191003 7 0 0.0 6.4 0.00 0.00 0.00 2 1011.0
20260502190504 7 0 0.0 6.4 0.00 0.00 0.00 2 1011.0
20260502190004 7 173 1.6 6.4 0.00 0.00 0.00 2 1011.0
20260502185503 7 176 1.6 4.8 0.00 0.00 0.00 2 1011.0
20260502184504 7 176 1.6 8.0 0.00 0.00 0.00 2 1011.2
20260502184004 7 178 1.6 6.4 0.00 0.00 0.00 2 1011.2
20260502183504 7 186 1.6 8.0 0.00 0.00 0.00 2 1011.2
20260502183003 7 178 3.2 9.7 0.00 0.00 0.00 2 1011.1
20260502182004 7 186 3.2 14.5 0.00 0.00 0.00 2 1011.2
20260502181503 7 193 3.2 9.7 0.00 0.00 0.00 2 1011.1
20260502170503 7 217 3.2 11.3 0.00 0.00 0.00 2 1011.4
20260502164003 7 159 1.6 8.0 0.00 0.00 0.00 2 1011.0
20260502163504 7 157 1.6 8.0 0.00 0.00 0.00 2 1010.9
20260502163003 7 161 1.6 6.4 0.00 0.00 0.00 2 1011.0
20260502162503 7 190 3.2 11.3 0.00 0.00 0.00 2 1011.0
20260502161503 7 160 3.2 9.7 0.00 0.00 0.00 2 1011.2
20260502161003 7 161 3.2 8.0 0.00 0.00 0.00 2 1011.2
20260502160503 7 173 3.2 6.4 0.00 0.00 0.00 2 1011.3
20260502151503 7 173 1.6 8.0 0.00 0.00 0.00 2 1011.6
20260502151003 7 160 1.6 8.0 0.00 0.00 0.00 2 1011.6
20260502150503 7 166 1.6 6.4 0.00 0.00 0.00 2 1011.6
20260502130503 7 200 1.6 6.4 0.00 0.00 0.00 2 1012.4
20260502123003 7 189 3.2 11.3 0.00 0.00 0.00 2 1012.1
20260502122504 7 186 3.2 9.7 0.00 0.00 0.00 2 1012.3
20260502122004 7 183 3.2 12.9 0.00 0.00 0.00 2 1012.4
20260502121503 7 188 3.2 12.9 0.00 0.00 0.00 2 1012.3
20260502121003 7 190 1.6 8.0 0.00 0.00 0.00 2 1012.2
20260502120503 7 0 0.0 8.0 0.00 0.00 0.00 2 1012.1
20260502115503 7 189 1.6 9.7 0.00 0.00 0.00 2 1012.2
20260502115003 7 0 0.0 6.4 0.00 0.00 0.00 2 1012.1
20260502114004 7 173 1.6 4.8 0.00 0.00 0.00 2 1011.9
20260502112504 7 0 0.0 0.0 0.00 0.00 0.00 2 1011.9
20260502112003 7 0 0.0 1.6 0.00 0.00 0.00 2 1011.9
20260502111503 7 0 0.0 1.6 0.00 0.00 0.00 2 1011.9
20260502111003 7 0 0.0 1.6 0.00 0.00 0.00 2 1012.0
20260502110504 7 0 0.0 1.6 0.00 0.00 0.00 2 1012.1
20260502110003 7 0 0.0 1.6 0.00 0.00 0.00 2 1012.0
20260502105503 7 0 0.0 1.6 0.00 0.00 0.00 2 1011.9
20260502105003 7 0 0.0 1.6 0.00 0.00 0.00 2 1012.1
20260502104503 7 0 0.0 0.0 0.00 0.00 0.00 2 1011.7
20260502104004 7 0 0.0 0.0 0.00 0.00 0.00 2 1011.6
20260502103503 7 0 0.0 0.0 0.00 0.00 0.00 2 1011.7
20260502103003 7 0 0.0 0.0 0.00 0.00 0.00 2 1011.6
20260502102504 7 0 0.0 0.0 0.00 0.00 0.00 2 1011.6
20260502102004 7 0 0.0 0.0 0.00 0.00 0.00 2 1011.5
20260502101504 7 0 0.0 0.0 0.00 0.00 0.00 2 1011.7
20260502101003 7 0 0.0 0.0 0.00 0.00 0.00 2 1011.8
20260502091504 7 0 0.0 0.0 0.00 0.00 0.00 2 1011.6
20260502091004 7 0 0.0 0.0 0.00 0.00 0.00 2 1011.4
20260502090503 7 0 0.0 0.0 0.00 0.00 0.00 2 1011.1
20260502071503 7 0 0.0 0.0 0.00 0.00 0.00 2 1011.3
20260502071003 7 0 0.0 0.0 0.00 0.00 0.00 2 1011.4
20260502070503 7 0 0.0 0.0 0.00 0.00 0.00 2 1011.4
20260502070004 7 0 0.0 0.0 0.00 0.00 0.00 2 1011.4
20260502065503 7 0 0.0 0.0 0.00 0.00 0.00 2 1011.4
20260502065003 7 0 0.0 0.0 0.00 0.00 0.00 2 1011.4
20260502064503 7 0 0.0 0.0 0.00 0.00 0.00 2 1011.4
20260502064004 7 0 0.0 0.0 0.00 0.00 0.00 2 1011.5
20260502063003 7 0 0.0 0.0 0.00 0.00 0.00 2 1011.5
20260502062504 7 0 0.0 0.0 0.00 0.00 0.00 2 1011.6
20260502061503 7 0 0.0 0.0 0.00 0.00 0.00 2 1011.5
20260502061004 7 0 0.0 0.0 0.00 0.00 0.00 2 1011.5
20260502060003 7 0 0.0 0.0 0.00 0.00 0.00 2 1011.7